Regional Weather Roundup
Issued by NWS Albany, NY

Home | Current Version | Previous Version | Graphics & Text | Print | Product List | Glossary Off
Versions: 1 2 3 4 5 6 7 8 9 10 11 12 13 14 15 16 17 18 19 20 21 22 23 24 25 26 27 28

000
ASUS41 KALY 221610
RWRALY

NEW YORK STATE HOURLY WEATHER ROUNDUP
NATIONAL WEATHER SERVICE ALBANY NY
1200 PM EDT TUE APR 22 2014

NOTE: "FAIR" INDICATES FEW OR NO CLOUDS BELOW 12,000 FEET WITH NO
SIGNIFICANT WEATHER AND/OR NO OBSTRUCTIONS TO VISIBILITY.

NYZ032-033-038>043-046>054-057>066-NYZ062>081-221700-
EAST


CITY           SKY/WX    TMP DP  RH WIND       PRES   REMARKS
ALBANY         CLOUDY    64  36  35 S8        29.58F
GLENS FALLS    CLOUDY    66  37  34 S5        29.56F
POUGHKEEPSIE   PTSUNNY   69  42  37 S8        29.58F
NEWBURGH       MOSUNNY   68  45  42 S9G21     29.62F
MONTGOMERY     PTSUNNY   72  41  32 SW14      29.60F
WHITE PLAINS   PTSUNNY   64  44  48 S10       29.64F
ISLIP          CLOUDY    60  46  59 S9        29.66F
NEW YORK CITY  CLOUDY    63  44  50 S10       29.65F
CENTRAL PARK   PTSUNNY   67  44  43 S3        29.67F
$$

NYZ005>009-017-018-044>046-055-056-221700-
CENTRAL


CITY           SKY/WX    TMP DP  RH WIND       PRES   REMARKS
FULTON         LGT RAIN  57  53  86 S7        29.52F FOG
SYRACUSE       LGT RAIN  61  53  75 S10       29.54F
ROME           LGT RAIN  56  50  80 SE5       29.56F
ELMIRA         LGT RAIN  58  51  78 SW7       29.59F
BINGHAMTON     LGT RAIN  56  46  69 W9        29.61R
MONTICELLO     CLOUDY    66  36  32 S7        29.63F
$$

NYZ026>034-041>043-221700-
NORTH


CITY           SKY/WX    TMP DP  RH WIND       PRES   REMARKS
WATERTOWN      LGT RAIN  55  49  80 W6        29.51F
FORT DRUM      NOT AVBL
MASSENA        LGT RAIN  54  51  90 CALM      29.51F FOG
SARANAC LAKE   CLOUDY    58  40  51 SW17      29.50F
PLATTSBURGH    CLOUDY    57  35  43 SE8       29.51F
$$

NYZ001>004-010>016-019>021-221700-
WEST


CITY           SKY/WX    TMP DP  RH WIND       PRES   REMARKS
NIAGARA FALLS  PTSUNNY   56  53  90 W6        29.57R
BUFFALO        FOG       48  47  96 SW13      29.59R VSB 1/4
DUNKIRK        FOG       47  46  97 SW14      29.63R VSB 1/4
JAMESTOWN      CLOUDY    52  50  93 W9        29.63S
WELLSVILLE     LGT RAIN  55  51  86 W8        29.61S
ROCHESTER      LGT RAIN  56  53  90 W10G20    29.55S
PENN YAN       CLOUDY    61  51  70 SW9       29.55F
$$

             KEY
       WCI = WIND CHILL INDEX
       VSB = VISIBILITY
       HX  = HEAT INDEX
$$



USA.gov is the U.S. government's official web portal to all federal, state and local government web resources and services.